Weather History for Billings, MT

Change the Weather History Date:

Monday, October 29, 2012

  Actual Average Record
Temperature  
Mean Temperature 52 °F 44 °F  
Max Temperature 62 °F 54 °F 80 °F (1968)
Min Temperature 41 °F 33 °F 1 °F (1991)
Degree Days  
Heating Degree Days 13 21  
Month to date heating degree days 552 477  
Since 1 July heating degree days 617 706  
Cooling Degree Days 0 0  
Month to date cooling degree days 3 0  
Year to date cooling degree days 958 633  
Growing Degree Days 1 (Base 50)    
Moisture  
Dew Point 39 °F    
Average Humidity 64    
Maximum Humidity 80    
Minimum Humidity 47    
Precipitation  
Precipitation 0.02 in 0.03 in 0.30 in (2003)
Month to date precipitation 1.14 1.13  
Year to date precipitation 6.22 12.48  
Snow  
Snow 0.00 in 0.20 in 5.40 in (1984)
Month to date snowfall 4.1 3.8  
Since 1 July snowfall 4.1 4.9  
Since 1 September snowfall 4.1 4.9  
Snow Depth 0.00 in    
Sea Level Pressure  
Sea Level Pressure 29.93 in    
Wind  
Wind Speed 5 mph (SW)    
Max Wind Speed 16 mph    
Max Gust Speed 17 mph    
Visibility 10 miles    
Events Rain    
T = Trace of Precipitation, MM = Missing Value Source: NWS Daily Summary

Daily Weather History Graph

Daily Weather History Graph

Search for Another Location

Airport:

Trip Planner

Search our weather history database for the weather conditions in past years. The results will help you decide how hot, cold, wet, or windy it might be!

Date:

Astronomy

Oct. 29, 2012 Rise Set
Actual Time 7:50 AM MDT 6:04 PM MDT
Civil Twilight 7:19 AM MDT 6:35 PM MDT
Nautical Twilight 6:44 AM MDT 7:10 PM MDT
Astronomical Twilight 6:10 AM MDT 7:44 PM MDT
Moon 5:55 PM MDT (10/29) 7:45 AM MDT (10/29)
Length of Visible Light 11h 15m
Length of Day
10h 13m
Full, 100% of the Moon is Illuminated
Oct 29
Full
Oct 29
Full
Nov 6
Last Quarter
Nov 13
New
Nov 20
First Quarter

Hourly Weather History & Observations

Time (MDT) Temp. Windchill Dew Point Humidity Pressure Visibility Wind Dir Wind Speed Gust Speed Precip Events Conditions
12:53 AM 46.0 °F - 32.0 °F 58% 29.92 in 10.0 mi Calm Calm - N/A   Clear
1:53 AM 48.0 °F - 32.0 °F 54% 29.92 in 10.0 mi North 3.5 mph - N/A   Clear
2:53 AM 46.0 °F 43.9 °F 33.1 °F 61% 29.91 in 10.0 mi South 4.6 mph - N/A   Clear
3:53 AM 44.1 °F 42.5 °F 34.0 °F 68% 29.92 in 10.0 mi NW 3.5 mph - N/A   Mostly Cloudy
4:53 AM 46.0 °F - 36.0 °F 68% 29.93 in 10.0 mi Calm Calm - 0.00 in Rain Light Rain
5:53 AM 45.0 °F 41.8 °F 36.0 °F 71% 29.94 in 10.0 mi South 5.8 mph - 0.00 in Rain Light Rain
6:53 AM 45.0 °F 42.6 °F 37.0 °F 74% 29.92 in 10.0 mi ENE 4.6 mph - 0.00 in Rain Light Rain
7:53 AM 44.1 °F 39.0 °F 36.0 °F 73% 29.93 in 10.0 mi SW 9.2 mph - 0.00 in   Mostly Cloudy
8:53 AM 48.0 °F - 37.0 °F 66% 29.93 in 10.0 mi WSW 8.1 mph - N/A   Mostly Cloudy
9:53 AM 51.1 °F - 39.9 °F 66% 29.93 in 10.0 mi Calm Calm - N/A   Scattered Clouds
10:53 AM 50.0 °F - 41.0 °F 71% 29.93 in 10.0 mi Calm Calm - 0.00 in   Overcast
11:53 AM 50.0 °F - 44.1 °F 80% 29.95 in 10.0 mi Calm Calm - 0.02 in Rain Light Rain
12:53 PM 51.1 °F - 46.0 °F 83% 29.94 in 10.0 mi Calm Calm - 0.00 in   Overcast
1:53 PM 50.0 °F - 44.6 °F 82% 29.93 in 10.0 mi SSW 8.1 mph - N/A   Mostly Cloudy
2:53 PM 55.9 °F - 43.0 °F 62% 29.90 in 10.0 mi SSW 11.5 mph - N/A   Scattered Clouds
3:53 PM 60.1 °F - 43.0 °F 53% 29.89 in 10.0 mi SSW 8.1 mph - N/A   Scattered Clouds
4:53 PM 61.0 °F - 43.0 °F 52% 29.88 in 10.0 mi South 4.6 mph - N/A   Scattered Clouds
5:53 PM 59.0 °F - 39.9 °F 49% 29.90 in 10.0 mi West 4.6 mph - N/A   Scattered Clouds
6:53 PM 59.0 °F - 39.0 °F 48% 29.91 in 10.0 mi West 13.8 mph - N/A   Scattered Clouds
7:53 PM 55.9 °F - 43.0 °F 62% 29.94 in 10.0 mi Calm Calm - N/A   Scattered Clouds
8:53 PM 57.9 °F - 39.0 °F 49% 29.95 in 10.0 mi WNW 4.6 mph - N/A   Scattered Clouds
9:53 PM 53.1 °F - 39.0 °F 59% 29.96 in 10.0 mi West 13.8 mph - N/A   Partly Cloudy
10:53 PM 51.1 °F - 39.0 °F 63% 29.98 in 10.0 mi SW 8.1 mph - N/A   Scattered Clouds
11:53 PM 51.1 °F - 37.9 °F 61% 30.00 in 10.0 mi Calm Calm - N/A   Partly Cloudy